EW7517 Weather Reports


Display with metric or nautical units.
time (UTC)temp
F
wind
direction
speed
MPH
gust
MPH
rain 1hr
in
rain 24hr
in
rain mn
in
humidity
%
barometer
mb
20260503190543 84 315 2.0 8.0 0.00 0.00 0.00 34 1010.7
20260503190253 82 0 3.0 8.0 0.00 0.00 0.00 35 1010.9
20260503185747 82 0 2.0 7.0 0.00 0.00 0.00 36 1010.8
20260503185013 81 0 3.0 7.0 0.00 0.00 0.00 35 1011.0
20260503184503 81 0 3.0 7.0 0.00 0.00 0.00 36 1010.9
20260503183953 81 315 0.0 6.0 0.00 0.00 0.00 36 1011.1
20260503183442 81 0 0.0 6.0 0.00 0.00 0.00 36 1011.3
20260503182932 80 0 1.0 5.0 0.00 0.00 0.00 39 1011.2
20260503182423 80 315 1.0 8.0 0.00 0.00 0.00 37 1011.3
20260503181911 79 0 2.0 8.0 0.00 0.00 0.00 39 1011.3
20260503181402 79 0 2.0 6.0 0.00 0.00 0.00 38 1011.4
20260503180852 79 0 2.0 5.0 0.00 0.00 0.00 40 1011.5
20260503180341 78 0 2.0 5.0 0.00 0.00 0.00 43 1011.5
20260503175833 78 315 1.0 5.0 0.00 0.00 0.00 42 1011.5
20260503175321 77 0 4.0 6.0 0.00 0.00 0.00 44 1011.7
20260503174810 76 0 3.0 6.0 0.00 0.00 0.00 45 1011.8
20260503174300 75 0 1.0 6.0 0.00 0.00 0.00 49 1011.8
20260503173751 74 315 2.0 6.0 0.00 0.00 0.00 51 1011.7
20260503173507 74 315 4.0 6.0 0.00 0.00 0.00 50 1011.8
20260503172730 74 315 2.0 6.0 0.00 0.00 0.00 50 1011.9
20260503172220 74 0 2.0 6.0 0.00 0.00 0.00 52 1011.9
20260503171710 72 315 1.0 6.0 0.00 0.00 0.00 51 1012.0
20260503171420 74 0 4.0 6.0 0.00 0.00 0.00 52 1012.0
20260503170654 73 338 4.0 8.0 0.00 0.00 0.00 51 1011.9
20260503170139 73 0 2.0 8.0 0.00 0.00 0.00 52 1012.0
20260503150756 65 135 0.0 2.0 0.00 0.00 0.00 78 1012.6
20260503150246 64 135 0.0 0.0 0.00 0.00 0.00 82 1012.7
20260503131415 52 135 0.0 0.0 0.00 0.00 0.00 95 1012.0
20260503130903 52 135 0.0 0.0 0.00 0.00 0.00 96 1012.1
20260503130353 51 135 0.0 0.0 0.00 0.00 0.00 96 1012.1
20260503130322 52 135 0.0 0.0 0.00 0.00 0.00 95 1012.1
20260503120154 53 135 0.0 0.0 0.00 0.00 0.00 95 1012.3
20260503110500 54 135 0.0 0.0 0.00 0.00 0.00 93 1012.2
20260503100257 54 135 0.0 0.0 0.00 0.00 0.00 92 1012.0
20260503081424 56 135 0.0 0.0 0.00 0.00 0.00 90 1012.2
20260503080914 56 135 0.0 0.0 0.00 0.00 0.00 89 1012.4
20260503080406 56 135 0.0 0.0 0.00 0.00 0.00 89 1012.6
20260503072753 57 135 0.0 0.0 0.00 0.00 0.00 86 1012.6
20260503072505 58 135 0.0 0.0 0.00 0.00 0.00 85 1012.5
20260503071732 58 135 0.0 0.0 0.00 0.00 0.00 85 1012.4
20260503071447 58 135 0.0 0.0 0.00 0.00 0.00 85 1012.5
20260503070714 58 135 0.0 0.0 0.00 0.00 0.00 84 1012.5
20260503070203 58 135 0.0 0.0 0.00 0.00 0.00 84 1012.5
20260503054430 61 135 0.0 0.0 0.00 0.00 0.00 75 1012.1
20260503053920 61 135 0.0 0.0 0.00 0.00 0.00 74 1012.1
20260503053411 63 135 0.0 1.0 0.00 0.00 0.00 73 1012.0
20260503052901 63 135 0.0 2.0 0.00 0.00 0.00 73 1012.0
20260503052349 63 135 0.0 3.0 0.00 0.00 0.00 73 1012.2
20260503051840 63 135 0.0 3.0 0.00 0.00 0.00 73 1012.2
20260503051553 63 135 1.0 3.0 0.00 0.00 0.00 73 1012.0
20260503050819 63 180 2.0 3.0 0.00 0.00 0.00 72 1012.4
20260503050311 64 180 0.0 4.0 0.00 0.00 0.00 73 1012.2
20260503045759 63 180 2.0 4.0 0.00 0.00 0.00 72 1012.4
20260503045248 64 180 0.0 2.0 0.00 0.00 0.00 72 1012.7
20260503044738 64 180 0.0 3.0 0.00 0.00 0.00 72 1012.6
20260503044228 64 180 1.0 3.0 0.00 0.00 0.00 73 1012.5
20260503043720 63 135 0.0 0.0 0.00 0.00 0.00 73 1012.6
20260503043208 63 135 0.0 0.0 0.00 0.00 0.00 72 1012.6
20260503042703 63 135 0.0 0.0 0.00 0.00 0.00 72 1012.6
20260503042148 63 135 0.0 0.0 0.00 0.00 0.00 72 1012.5
20260503041638 63 135 0.0 0.0 0.00 0.00 0.00 71 1012.4
20260503041129 64 135 0.0 0.0 0.00 0.00 0.00 71 1012.5
20260503040617 64 135 0.0 0.0 0.00 0.00 0.00 71 1012.3
20260503040108 64 135 0.0 0.0 0.00 0.00 0.00 70 1012.3
20260503035558 64 135 0.0 1.0 0.00 0.00 0.00 69 1012.3
20260503035047 64 135 0.0 1.0 0.00 0.00 0.00 69 1012.2
20260503034538 65 135 0.0 0.0 0.00 0.00 0.00 69 1012.3
20260503034028 65 135 0.0 1.0 0.00 0.00 0.00 68 1012.2
20260503033516 65 135 0.0 1.0 0.00 0.00 0.00 67 1012.3
20260503033235 65 135 0.0 1.0 0.00 0.00 0.00 67 1012.1
20260503032456 65 135 0.0 1.0 0.00 0.00 0.00 67 1012.1
20260503031948 66 135 0.0 2.0 0.00 0.00 0.00 67 1011.9
20260503031437 66 135 1.0 3.0 0.00 0.00 0.00 67 1012.1
20260503030926 66 135 0.0 4.0 0.00 0.00 0.00 67 1011.7
20260503030417 66 158 1.0 4.0 0.00 0.00 0.00 67 1011.8
20260503025905 66 180 1.0 8.0 0.00 0.00 0.00 66 1011.8
20260503025356 66 135 3.0 10.0 0.00 0.00 0.00 65 1011.9
20260503024845 67 135 4.0 10.0 0.00 0.00 0.00 65 1012.0
20260503024334 67 135 4.0 9.0 0.00 0.00 0.00 65 1012.0
20260503023825 67 158 3.0 9.0 0.00 0.00 0.00 64 1011.9
20260503023315 67 180 4.0 10.0 0.00 0.00 0.00 63 1012.0
20260503023030 68 180 4.0 15.0 0.00 0.00 0.00 62 1011.9
20260503022518 69 180 5.0 15.0 0.00 0.00 0.00 60 1012.0
20260503021744 70 180 4.0 14.0 0.00 0.00 0.00 59 1011.8
20260503021234 71 180 4.0 10.0 0.00 0.00 0.00 56 1011.8
20260503020725 71 180 4.0 9.0 0.00 0.00 0.00 55 1011.8
20260503020215 72 225 2.0 6.0 0.00 0.00 0.00 52 1011.3
20260503015703 73 270 1.0 4.0 0.00 0.00 0.00 51 1011.3
20260503015153 74 315 0.0 3.0 0.00 0.00 0.00 52 1011.2
20260503015127 74 315 0.0 2.0 0.00 0.00 0.00 51 1011.2
20260503014356 74 315 0.0 2.0 0.00 0.00 0.00 51 1011.0
20260503013625 74 315 0.0 2.0 0.00 0.00 0.00 51 1011.1
20260503013113 74 315 0.0 4.0 0.00 0.00 0.00 51 1011.1
20260503012602 74 315 0.0 4.0 0.00 0.00 0.00 50 1011.0
20260503012052 74 315 2.0 2.0 0.00 0.00 0.00 50 1011.1
20260503011543 74 315 0.0 1.0 0.00 0.00 0.00 49 1010.9
20260503011034 74 315 0.0 4.0 0.00 0.00 0.00 50 1011.0
20260503010523 74 315 0.0 4.0 0.00 0.00 0.00 49 1011.0
20260503010013 74 315 2.0 4.0 0.00 0.00 0.00 50 1011.0
20260503005502 74 315 0.0 4.0 0.00 0.00 0.00 48 1011.0
20260503004952 74 0 0.0 6.0 0.00 0.00 0.00 49 1011.1
20260503004443 74 315 2.0 6.0 0.00 0.00 0.00 48 1011.0
20260503003931 74 0 2.0 4.0 0.00 0.00 0.00 48 1011.1
20260503003421 74 315 2.0 4.0 0.00 0.00 0.00 49 1011.0
20260503002912 74 315 1.0 4.0 0.00 0.00 0.00 49 1011.1
20260503002401 74 315 0.0 5.0 0.00 0.00 0.00 49 1011.1
20260503001852 74 315 2.0 7.0 0.00 0.00 0.00 50 1011.2
20260503001340 73 315 2.0 7.0 0.00 0.00 0.00 49 1011.3
20260503000830 74 315 0.0 4.0 0.00 0.00 0.00 49 1011.0
20260503000321 73 0 0.0 3.0 0.00 0.00 0.00 49 1011.1
20260503000032 73 315 2.0 3.0 0.00 0.00 0.00 49 1011.3
20260502235304 72 0 2.0 8.0 0.00 0.00 0.00 50 1011.4
20260502234750 72 0 2.0 8.0 0.00 0.00 0.00 49 1011.4
20260502234240 72 315 2.0 5.0 0.00 0.00 0.00 50 1011.4
20260502233729 71 315 4.0 6.0 0.00 0.00 0.00 51 1011.6
20260502233219 71 315 0.0 6.0 0.00 0.00 0.00 51 1011.6
20260502232711 71 315 2.0 6.0 0.00 0.00 0.00 51 1011.7
20260502232159 71 0 3.0 7.0 0.00 0.00 0.00 51 1011.8
20260502231654 70 315 0.0 7.0 0.00 0.00 0.00 51 1011.9
20260502231139 71 0 2.0 5.0 0.00 0.00 0.00 52 1011.9
20260502230629 70 315 2.0 6.0 0.00 0.00 0.00 52 1011.9
20260502230120 69 0 3.0 6.0 0.00 0.00 0.00 53 1012.0
20260502225834 70 338 3.0 5.0 0.00 0.00 0.00 53 1012.0
20260502225058 69 315 0.0 6.0 0.00 0.00 0.00 53 1012.3
20260502224549 69 338 2.0 8.0 0.00 0.00 0.00 54 1012.3
20260502224038 69 338 5.0 8.0 0.00 0.00 0.00 54 1012.3
20260502223530 69 315 3.0 4.0 0.00 0.00 0.00 53 1012.3
20260502223017 69 315 2.0 6.0 0.00 0.00 0.00 52 1012.6
20260502222508 70 315 2.0 7.0 0.00 0.00 0.00 52 1012.7
20260502221957 69 315 1.0 7.0 0.00 0.00 0.00 54 1012.7
20260502221447 69 315 1.0 4.0 0.00 0.00 0.00 54 1012.7
20260502220938 69 315 3.0 4.0 0.00 0.00 0.00 54 1012.9
20260502220427 68 315 2.0 8.0 0.00 0.00 0.00 54 1013.0
20260502215917 68 315 2.0 8.0 0.00 0.00 0.00 53 1013.1
20260502215408 69 0 3.0 6.0 0.00 0.00 0.00 52 1013.0
20260502214857 70 0 2.0 5.0 0.00 0.00 0.00 50 1013.1
20260502214348 71 0 2.0 5.0 0.00 0.00 0.00 50 1013.2
20260502213836 71 315 1.0 6.0 0.00 0.00 0.00 50 1013.2
20260502213553 71 0 2.0 6.0 0.00 0.00 0.00 50 1013.4
20260502212816 70 315 3.0 7.0 0.00 0.00 0.00 50 1013.3
20260502212306 70 0 2.0 10.0 0.00 0.00 0.00 50 1013.6
20260502211756 70 0 3.0 10.0 0.00 0.00 0.00 51 1013.8
20260502211452 69 0 2.0 7.0 0.00 0.00 0.00 52 1013.8
20260502211336 70 338 7.0 10.0 0.00 0.00 0.00 52 1013.5
20260502210226 70 0 4.0 7.0 0.00 0.00 0.00 52 1013.9
20260502205716 69 0 2.0 5.0 0.00 0.00 0.00 52 1013.8
20260502205206 69 0 0.0 5.0 0.00 0.00 0.00 52 1014.0
20260502204654 68 0 0.0 4.0 0.00 0.00 0.00 54 1014.3
20260502204144 67 0 1.0 5.0 0.00 0.00 0.00 56 1014.4
20260502203634 67 315 1.0 8.0 0.00 0.00 0.00 54 1014.3
20260502203343 69 315 5.0 8.0 0.00 0.00 0.00 52 1014.4
20260502202616 69 0 2.0 6.0 0.00 0.00 0.00 52 1014.3
20260502202104 69 0 3.0 6.0 0.00 0.00 0.00 53 1014.5
20260502201821 68 0 1.0 4.0 0.00 0.00 0.00 53 1014.6
20260502201043 67 0 0.0 5.0 0.00 0.00 0.00 55 1014.7
20260502200533 66 0 2.0 5.0 0.00 0.00 0.00 57 1014.8
20260502200024 66 315 2.0 5.0 0.00 0.00 0.00 55 1014.7
20260502195513 66 0 1.0 4.0 0.00 0.00 0.00 58 1014.6
20260502195004 65 315 0.0 6.0 0.00 0.00 0.00 61 1014.8
20260502194453 64 315 0.0 8.0 0.00 0.00 0.00 60 1014.9
20260502193944 64 315 4.0 8.0 0.00 0.00 0.00 59 1014.9
20260502193434 64 315 4.0 8.0 0.00 0.00 0.00 59 1015.1
20260502192923 65 315 3.0 7.0 0.00 0.00 0.00 60 1015.0
20260502192412 64 315 2.0 9.0 0.00 0.00 0.00 62 1015.4
20260502191902 62 0 2.0 9.0 0.00 0.00 0.00 62 1015.0
20260502191352 64 315 3.0 8.0 0.00 0.00 0.00 60 1015.6
20260502190844 63 315 1.0 8.0 0.00 0.00 0.00 60 1015.6
20260502190812 63 315 2.0 7.0 0.00 0.00 0.00 59 1015.4